Time,TemperatureF,DewpointF,PressureIn,WindDirection,WindDirectionDegrees,WindSpeedMPH,WindSpeedGustMPH,Humidity,HourlyPrecipIn,Conditions,Clouds,dailyrainin,SoftwareType,DateUTC
2013-03-15 00:03:00,56.8,38.9,30.08,NNE,22,0.0,0.0,51,-99.99,,,0.00,wxRedirect v1.1,2013-03-15 05:03:00,
2013-03-15 00:09:00,56.8,39.4,30.08,NNE,22,0.0,0.0,52,-99.99,,,0.00,wxRedirect v1.1,2013-03-15 05:09:00,
2013-03-15 00:14:00,56.8,39.4,30.07,NNE,22,0.0,0.0,52,-99.99,,,0.00,wxRedirect v1.1,2013-03-15 05:14:00,
2013-03-15 00:19:00,56.5,39.1,30.07,NNE,22,0.0,0.0,52,-99.99,,,0.00,wxRedirect v1.1,2013-03-15 05:19:00,
2013-03-15 00:25:00,56.5,39.1,30.07,NNE,22,0.0,0.0,52,-99.99,,,0.00,wxRedirect v1.1,2013-03-15 05:25:00,
2013-03-15 00:30:00,56.3,38.9,30.07,NNE,22,0.0,0.0,52,-99.99,,,0.00,wxRedirect v1.1,2013-03-15 05:30:00,
2013-03-15 00:35:00,56.3,38.9,30.07,NNE,22,0.0,0.0,52,-99.99,,,0.00,wxRedirect v1.1,2013-03-15 05:35:00,
2013-03-15 00:40:00,56.1,38.7,30.06,NNE,22,0.0,0.0,52,-99.99,,,0.00,wxRedirect v1.1,2013-03-15 05:40:00,
2013-03-15 00:46:00,56.1,38.7,30.06,NNE,22,0.0,0.0,52,-99.99,,,0.00,wxRedirect v1.1,2013-03-15 05:46:00,
2013-03-15 00:51:00,55.9,39.0,30.06,NNE,22,0.0,0.0,53,-99.99,,,0.00,wxRedirect v1.1,2013-03-15 05:51:00,
2013-03-15 00:56:00,55.9,39.0,30.06,NNE,22,0.0,0.0,53,-99.99,,,0.00,wxRedirect v1.1,2013-03-15 05:56:00,
2013-03-15 01:02:00,55.9,39.0,30.06,NNE,22,0.0,0.0,53,-99.99,,,0.00,wxRedirect v1.1,2013-03-15 06:02:00,
2013-03-15 01:07:00,55.8,38.8,30.06,NNE,22,0.0,0.0,53,-99.99,,,0.00,wxRedirect v1.1,2013-03-15 06:07:00,
2013-03-15 01:13:00,55.6,38.6,30.06,NNE,22,0.0,0.0,53,-99.99,,,0.00,wxRedirect v1.1,2013-03-15 06:13:00,
2013-03-15 01:18:00,55.6,38.6,30.06,NNE,22,0.0,0.0,53,-99.99,,,0.00,wxRedirect v1.1,2013-03-15 06:18:00,
2013-03-15 01:23:00,55.6,38.6,30.05,NNE,22,0.0,0.0,53,-99.99,,,0.00,wxRedirect v1.1,2013-03-15 06:23:00,
2013-03-15 01:29:00,55.6,38.6,30.05,NNE,22,0.0,0.0,53,-99.99,,,0.00,wxRedirect v1.1,2013-03-15 06:29:00,
2013-03-15 01:34:00,55.6,38.6,30.05,NNE,22,0.0,0.0,53,-99.99,,,0.00,wxRedirect v1.1,2013-03-15 06:34:00,
2013-03-15 01:39:00,55.4,38.4,30.05,NNE,22,0.0,0.0,53,-99.99,,,0.00,wxRedirect v1.1,2013-03-15 06:39:00,
2013-03-15 01:45:00,55.2,38.3,30.05,NNE,22,0.0,0.0,53,-99.99,,,0.00,wxRedirect v1.1,2013-03-15 06:45:00,
2013-03-15 01:50:00,55.2,38.3,30.05,NNE,22,0.0,0.0,53,-99.99,,,0.00,wxRedirect v1.1,2013-03-15 06:50:00,
2013-03-15 01:55:00,55.0,38.1,30.05,NNE,22,0.0,0.0,53,-99.99,,,0.00,wxRedirect v1.1,2013-03-15 06:55:00,
2013-03-15 02:01:00,54.9,38.0,30.05,NNE,22,0.0,0.0,53,-99.99,,,0.00,wxRedirect v1.1,2013-03-15 07:01:00,
2013-03-15 02:06:00,54.7,37.8,30.04,NNE,22,0.0,0.0,53,-99.99,,,0.00,wxRedirect v1.1,2013-03-15 07:06:00,
2013-03-15 02:11:00,54.3,37.9,30.04,NNE,22,0.0,0.0,54,-99.99,,,0.00,wxRedirect v1.1,2013-03-15 07:11:00,
2013-03-15 02:17:00,54.3,37.9,30.04,NNE,22,0.0,0.0,54,-99.99,,,0.00,wxRedirect v1.1,2013-03-15 07:17:00,
2013-03-15 02:22:00,54.1,37.8,30.04,NNE,22,0.0,0.0,54,-99.99,,,0.00,wxRedirect v1.1,2013-03-15 07:22:00,
2013-03-15 02:27:00,53.8,37.5,30.04,NNE,22,0.0,0.0,54,-99.99,,,0.00,wxRedirect v1.1,2013-03-15 07:27:00,
2013-03-15 02:33:00,53.6,37.3,30.04,NNE,22,0.0,0.0,54,-99.99,,,0.00,wxRedirect v1.1,2013-03-15 07:33:00,
2013-03-15 02:38:00,53.4,37.6,30.03,NNE,22,0.0,0.0,55,-99.99,,,0.00,wxRedirect v1.1,2013-03-15 07:38:00,
2013-03-15 02:43:00,53.2,37.4,30.03,NNE,22,0.0,0.0,55,-99.99,,,0.00,wxRedirect v1.1,2013-03-15 07:43:00,
2013-03-15 02:49:00,53.1,37.2,30.03,NNE,22,0.0,0.0,55,-99.99,,,0.00,wxRedirect v1.1,2013-03-15 07:49:00,
2013-03-15 02:54:00,52.9,37.1,30.02,NNE,22,0.0,0.0,55,-99.99,,,0.00,wxRedirect v1.1,2013-03-15 07:54:00,
2013-03-15 02:59:00,52.7,37.4,30.02,NNE,22,0.0,0.0,56,-99.99,,,0.00,wxRedirect v1.1,2013-03-15 07:59:00,
2013-03-15 03:05:00,52.5,37.2,30.02,SE,135,1.1,1.1,56,-99.99,,,0.00,wxRedirect v1.1,2013-03-15 08:05:00,
2013-03-15 03:10:00,52.5,37.6,30.02,SSE,157,1.3,3.6,57,-99.99,,,0.00,wxRedirect v1.1,2013-03-15 08:10:00,
2013-03-15 03:15:00,52.5,37.6,30.02,SSE,157,1.6,3.6,57,-99.99,,,0.00,wxRedirect v1.1,2013-03-15 08:15:00,
2013-03-15 05:39:00,50.5,38.8,29.97,SSW,202,4.0,4.0,64,-99.99,,,0.00,wxRedirect v1.1,2013-03-15 10:39:00,
2013-03-15 05:44:00,50.5,39.2,29.97,South,180,3.6,4.0,65,-99.99,,,0.00,wxRedirect v1.1,2013-03-15 10:44:00,
2013-03-15 05:50:00,50.7,39.3,29.97,South,180,2.5,3.6,65,-99.99,,,0.00,wxRedirect v1.1,2013-03-15 10:50:00,
2013-03-15 05:55:00,50.5,39.2,29.97,South,180,0.0,4.0,65,-99.99,,,0.00,wxRedirect v1.1,2013-03-15 10:55:00,
2013-03-15 06:00:00,50.5,39.2,29.97,South,180,2.9,4.7,65,-99.99,,,0.00,wxRedirect v1.1,2013-03-15 11:00:00,
2013-03-15 06:05:00,50.4,39.0,29.97,South,180,3.1,4.7,65,-99.99,,,0.00,wxRedirect v1.1,2013-03-15 11:05:00,
2013-03-15 06:11:00,50.4,39.0,29.97,South,180,0.0,3.6,65,-99.99,,,0.00,wxRedirect v1.1,2013-03-15 11:11:00,
2013-03-15 06:16:00,50.2,38.8,29.96,South,180,3.6,3.6,65,-99.99,,,0.00,wxRedirect v1.1,2013-03-15 11:16:00,
2013-03-15 06:21:00,49.8,38.5,29.96,South,180,2.0,3.6,65,-99.99,,,0.00,wxRedirect v1.1,2013-03-15 11:21:00,
2013-03-15 06:27:00,49.8,38.5,29.96,South,180,0.0,3.1,65,-99.99,,,0.00,wxRedirect v1.1,2013-03-15 11:27:00,
2013-03-15 06:32:00,49.8,38.5,29.96,South,180,0.0,3.1,65,-99.99,,,0.00,wxRedirect v1.1,2013-03-15 11:32:00,
2013-03-15 06:38:00,49.6,38.3,29.96,South,180,2.2,3.4,65,-99.99,,,0.00,wxRedirect v1.1,2013-03-15 11:38:00,
2013-03-15 06:43:00,49.6,38.3,29.96,South,180,4.0,4.0,65,-99.99,,,0.00,wxRedirect v1.1,2013-03-15 11:43:00,
2013-03-15 06:48:00,49.3,38.0,29.96,South,180,0.0,4.0,65,-99.99,,,0.00,wxRedirect v1.1,2013-03-15 11:48:00,
2013-03-15 06:54:00,49.3,38.4,29.96,South,180,0.0,2.9,66,-99.99,,,0.00,wxRedirect v1.1,2013-03-15 11:54:00,
2013-03-15 06:59:00,49.3,38.4,29.96,South,180,0.0,3.1,66,-99.99,,,0.00,wxRedirect v1.1,2013-03-15 11:59:00,
2013-03-15 07:04:00,49.3,38.4,29.96,South,180,0.0,3.1,66,-99.99,,,0.00,wxRedirect v1.1,2013-03-15 12:04:00,
2013-03-15 07:10:00,48.9,38.0,29.96,South,180,0.0,1.6,66,-99.99,,,0.00,wxRedirect v1.1,2013-03-15 12:10:00,
2013-03-15 07:15:00,49.1,38.2,29.96,South,180,1.6,2.9,66,-99.99,,,0.00,wxRedirect v1.1,2013-03-15 12:15:00,
2013-03-15 07:20:00,49.1,38.2,29.96,South,180,2.0,2.9,66,-99.99,,,0.00,wxRedirect v1.1,2013-03-15 12:20:00,
2013-03-15 07:26:00,49.1,38.2,29.96,South,180,2.0,2.0,66,-99.99,,,0.00,wxRedirect v1.1,2013-03-15 12:26:00,
2013-03-15 07:31:00,48.9,38.0,29.95,South,180,3.1,3.1,66,-99.99,,,0.00,wxRedirect v1.1,2013-03-15 12:31:00,
2013-03-15 07:36:00,48.9,38.4,29.96,South,180,3.1,3.1,67,-99.99,,,0.00,wxRedirect v1.1,2013-03-15 12:36:00,
2013-03-15 07:42:00,48.7,38.2,29.95,South,180,2.9,3.1,67,-99.99,,,0.00,wxRedirect v1.1,2013-03-15 12:42:00,
2013-03-15 07:47:00,48.7,38.2,29.95,South,180,2.9,3.1,67,-99.99,,,0.00,wxRedirect v1.1,2013-03-15 12:47:00,
2013-03-15 07:52:00,48.6,38.0,29.96,South,180,0.0,3.1,67,-99.99,,,0.00,wxRedirect v1.1,2013-03-15 12:52:00,
2013-03-15 07:58:00,48.6,38.0,29.96,South,180,0.0,2.2,67,-99.99,,,0.00,wxRedirect v1.1,2013-03-15 12:58:00,
2013-03-15 08:03:00,48.7,38.2,29.95,South,180,0.0,3.4,67,-99.99,,,0.00,wxRedirect v1.1,2013-03-15 13:03:00,
2013-03-15 08:08:00,48.7,38.2,29.96,South,180,0.0,3.4,67,-99.99,,,0.00,wxRedirect v1.1,2013-03-15 13:08:00,
2013-03-15 08:14:00,49.1,39.0,29.95,South,180,0.0,0.0,68,-99.99,,,0.00,wxRedirect v1.1,2013-03-15 13:14:00,
2013-03-15 08:19:00,49.3,39.1,29.95,South,180,0.0,0.0,68,-99.99,,,0.00,wxRedirect v1.1,2013-03-15 13:19:00,
2013-03-15 08:24:00,49.8,39.7,29.95,South,180,0.0,0.0,68,-99.99,,,0.00,wxRedirect v1.1,2013-03-15 13:24:00,
2013-03-15 08:30:00,49.8,39.3,29.95,South,180,0.0,0.0,67,-99.99,,,0.00,wxRedirect v1.1,2013-03-15 13:30:00,
2013-03-15 08:35:00,50.5,40.0,29.95,South,180,1.6,1.8,67,-99.99,,,0.00,wxRedirect v1.1,2013-03-15 13:35:00,
2013-03-15 08:40:00,50.7,40.1,29.95,South,180,0.0,1.8,67,-99.99,,,0.00,wxRedirect v1.1,2013-03-15 13:40:00,
2013-03-15 08:46:00,51.4,40.4,29.95,South,180,0.0,2.5,66,-99.99,,,0.00,wxRedirect v1.1,2013-03-15 13:46:00,
2013-03-15 08:51:00,51.8,40.8,29.95,SSE,157,3.1,3.1,66,-99.99,,,0.00,wxRedirect v1.1,2013-03-15 13:51:00,
2013-03-15 08:56:00,52.9,41.8,29.94,South,180,3.6,3.8,66,-99.99,,,0.00,wxRedirect v1.1,2013-03-15 13:56:00,
2013-03-15 09:02:00,53.4,41.9,29.94,South,180,2.5,3.8,65,-99.99,,,0.00,wxRedirect v1.1,2013-03-15 14:02:00,
2013-03-15 09:07:00,54.5,42.5,29.94,South,180,0.4,5.1,64,-99.99,,,0.00,wxRedirect v1.1,2013-03-15 14:07:00,
2013-03-15 09:12:00,55.2,42.8,29.94,South,180,0.0,5.1,63,-99.99,,,0.00,wxRedirect v1.1,2013-03-15 14:12:00,
2013-03-15 09:18:00,56.5,43.6,29.94,South,180,1.3,2.9,62,-99.99,,,0.00,wxRedirect v1.1,2013-03-15 14:18:00,
2013-03-15 09:23:00,57.4,44.1,29.94,South,180,2.7,6.0,61,-99.99,,,0.00,wxRedirect v1.1,2013-03-15 14:23:00,
2013-03-15 09:28:00,58.8,45.0,29.93,South,180,2.9,6.0,60,-99.99,,,0.00,wxRedirect v1.1,2013-03-15 14:28:00,
2013-03-15 09:34:00,59.5,45.2,29.93,South,180,7.2,7.2,59,-99.99,,,0.00,wxRedirect v1.1,2013-03-15 14:34:00,
2013-03-15 09:39:00,60.4,45.6,29.93,SSW,202,4.0,7.2,58,-99.99,,,0.00,wxRedirect v1.1,2013-03-15 14:39:00,
2013-03-15 09:44:00,61.5,45.6,29.93,South,180,6.3,6.3,56,-99.99,,,0.00,wxRedirect v1.1,2013-03-15 14:44:00,
2013-03-15 09:50:00,61.5,45.2,29.93,SSE,157,6.9,6.9,55,-99.99,,,0.00,wxRedirect v1.1,2013-03-15 14:50:00,
2013-03-15 09:55:00,63.1,46.1,29.93,South,180,3.4,6.9,54,-99.99,,,0.00,wxRedirect v1.1,2013-03-15 14:55:00,
2013-03-15 10:00:00,63.1,46.1,29.93,SSE,157,3.1,8.7,54,-99.99,,,0.00,wxRedirect v1.1,2013-03-15 15:00:00,
2013-03-15 10:06:00,63.3,45.8,29.93,South,180,6.3,8.7,53,-99.99,,,0.00,wxRedirect v1.1,2013-03-15 15:06:00,
2013-03-15 10:11:00,63.5,46.0,29.93,SSW,202,8.5,8.5,53,-99.99,,,0.00,wxRedirect v1.1,2013-03-15 15:11:00,
2013-03-15 10:16:00,63.9,45.8,29.93,South,180,7.8,8.5,52,-99.99,,,0.00,wxRedirect v1.1,2013-03-15 15:16:00,
2013-03-15 10:22:00,64.6,46.1,29.93,South,180,6.9,8.5,52,-99.99,,,0.00,wxRedirect v1.1,2013-03-15 15:22:00,
2013-03-15 10:27:00,65.1,47.0,29.92,SSE,157,6.5,6.9,52,-99.99,,,0.00,wxRedirect v1.1,2013-03-15 15:27:00,
2013-03-15 10:32:00,65.1,46.5,29.93,SSE,157,3.4,6.9,51,-99.99,,,0.00,wxRedirect v1.1,2013-03-15 15:32:00,
2013-03-15 10:38:00,65.5,46.9,29.92,SSE,157,6.5,6.5,51,-99.99,,,0.00,wxRedirect v1.1,2013-03-15 15:38:00,
2013-03-15 10:43:00,65.8,47.2,29.92,South,180,9.6,9.6,51,-99.99,,,0.00,wxRedirect v1.1,2013-03-15 15:43:00,
2013-03-15 10:48:00,66.4,47.8,29.92,South,180,2.0,9.6,51,-99.99,,,0.00,wxRedirect v1.1,2013-03-15 15:48:00,
2013-03-15 10:54:00,66.7,47.6,29.92,SSW,202,7.2,9.6,50,-99.99,,,0.00,wxRedirect v1.1,2013-03-15 15:54:00,
2013-03-15 10:59:00,67.5,48.3,29.91,SSE,157,3.6,7.2,50,-99.99,,,0.00,wxRedirect v1.1,2013-03-15 15:59:00,
2013-03-15 11:04:00,67.8,48.0,29.91,South,180,7.6,8.5,49,-99.99,,,0.00,wxRedirect v1.1,2013-03-15 16:04:00,
2013-03-15 11:10:00,68.7,48.2,29.91,South,180,5.6,8.5,48,-99.99,,,0.00,wxRedirect v1.1,2013-03-15 16:10:00,
2013-03-15 11:15:00,69.1,48.5,29.91,SSW,202,9.2,9.2,48,-99.99,,,0.00,wxRedirect v1.1,2013-03-15 16:15:00,
2013-03-15 11:20:00,69.8,49.2,29.91,SSW,202,5.8,9.2,48,-99.99,,,0.00,wxRedirect v1.1,2013-03-15 16:20:00,
2013-03-15 11:26:00,70.5,49.2,29.91,South,180,3.8,6.9,47,-99.99,,,0.00,wxRedirect v1.1,2013-03-15 16:26:00,
2013-03-15 11:31:00,71.2,49.3,29.90,SSW,202,2.5,8.1,46,-99.99,,,0.00,wxRedirect v1.1,2013-03-15 16:31:00,
2013-03-15 11:36:00,71.8,49.8,29.90,SSE,157,7.4,8.1,46,-99.99,,,0.00,wxRedirect v1.1,2013-03-15 16:36:00,
2013-03-15 11:41:00,72.3,50.3,29.90,South,180,4.7,7.4,46,-99.99,,,0.00,wxRedirect v1.1,2013-03-15 16:41:00,
2013-03-15 11:47:00,72.9,50.1,29.89,South,180,3.8,6.0,45,-99.99,,,0.00,wxRedirect v1.1,2013-03-15 16:47:00,
2013-03-15 11:52:00,73.6,50.2,29.90,SSW,202,0.0,6.0,44,-99.99,,,0.00,wxRedirect v1.1,2013-03-15 16:52:00,
2013-03-15 11:57:00,74.1,50.7,29.89,SW,225,0.0,5.6,44,-99.99,,,0.00,wxRedirect v1.1,2013-03-15 16:57:00,
2013-03-15 12:02:00,74.8,50.8,29.89,SW,225,3.4,7.4,43,-99.99,,,0.00,wxRedirect v1.1,2013-03-15 17:02:00,
2013-03-15 12:08:00,75.4,51.3,29.89,SSW,202,5.8,7.4,43,-99.99,,,0.00,wxRedirect v1.1,2013-03-15 17:08:00,
2013-03-15 12:13:00,75.7,51.0,29.88,SSE,157,0.0,5.8,42,-99.99,,,0.00,wxRedirect v1.1,2013-03-15 17:13:00,
2013-03-15 12:18:00,76.3,51.5,29.88,South,180,6.0,6.0,42,-99.99,,,0.00,wxRedirect v1.1,2013-03-15 17:18:00,
2013-03-15 12:23:00,76.6,51.8,29.88,SSW,202,6.5,6.5,42,-99.99,,,0.00,wxRedirect v1.1,2013-03-15 17:23:00,
2013-03-15 12:29:00,77.2,51.7,29.88,SW,225,2.5,6.5,41,-99.99,,,0.00,wxRedirect v1.1,2013-03-15 17:29:00,
2013-03-15 12:34:00,77.5,52.0,29.88,South,180,4.7,6.9,41,-99.99,,,0.00,wxRedirect v1.1,2013-03-15 17:34:00,
2013-03-15 12:39:00,77.9,51.7,29.87,South,180,2.2,6.9,40,-99.99,,,0.00,wxRedirect v1.1,2013-03-15 17:39:00,
2013-03-15 12:45:00,78.1,51.9,29.87,South,180,3.8,6.9,40,-99.99,,,0.00,wxRedirect v1.1,2013-03-15 17:45:00,
2013-03-15 12:50:00,78.1,51.9,29.87,SSW,202,3.4,6.9,40,-99.99,,,0.00,wxRedirect v1.1,2013-03-15 17:50:00,
2013-03-15 12:55:00,78.3,52.0,29.86,SSE,157,4.5,5.8,40,-99.99,,,0.00,wxRedirect v1.1,2013-03-15 17:55:00,
2013-03-15 13:01:00,78.4,52.2,29.86,South,180,3.8,4.7,40,-99.99,,,0.00,wxRedirect v1.1,2013-03-15 18:01:00,
2013-03-15 13:06:00,78.6,51.6,29.86,South,180,2.9,4.7,39,-99.99,,,0.00,wxRedirect v1.1,2013-03-15 18:06:00,
2013-03-15 13:11:00,78.8,52.5,29.86,South,180,11.0,11.0,40,-99.99,,,0.00,wxRedirect v1.1,2013-03-15 18:11:00,
2013-03-15 13:17:00,79.0,51.1,29.86,SSW,202,2.0,11.0,38,-99.99,,,0.00,wxRedirect v1.1,2013-03-15 18:17:00,
2013-03-15 13:22:00,79.2,51.3,29.85,South,180,3.8,11.0,38,-99.99,,,0.00,wxRedirect v1.1,2013-03-15 18:22:00,
2013-03-15 13:27:00,79.3,51.5,29.85,SSE,157,2.9,7.4,38,-99.99,,,0.00,wxRedirect v1.1,2013-03-15 18:27:00,
2013-03-15 13:32:00,79.3,51.5,29.85,SSE,157,3.1,8.1,38,-99.99,,,0.00,wxRedirect v1.1,2013-03-15 18:32:00,
2013-03-15 13:38:00,79.2,51.3,29.85,SSE,157,3.6,8.1,38,-99.99,,,0.00,wxRedirect v1.1,2013-03-15 18:38:00,
2013-03-15 13:43:00,79.3,51.5,29.84,SSW,202,7.2,7.2,38,-99.99,,,0.00,wxRedirect v1.1,2013-03-15 18:43:00,
2013-03-15 13:48:00,79.5,50.8,29.84,SSW,202,9.4,9.4,37,-99.99,,,0.00,wxRedirect v1.1,2013-03-15 18:48:00,
2013-03-15 13:54:00,79.9,50.4,29.84,South,180,5.6,9.4,36,-99.99,,,0.00,wxRedirect v1.1,2013-03-15 18:54:00,
2013-03-15 13:59:00,80.2,51.5,29.83,SSW,202,5.8,5.8,37,-99.99,,,0.00,wxRedirect v1.1,2013-03-15 18:59:00,
2013-03-15 14:04:00,80.4,51.7,29.83,SSE,157,6.7,13.9,37,-99.99,,,0.00,wxRedirect v1.1,2013-03-15 19:04:00,
2013-03-15 14:10:00,80.4,51.7,29.82,SSW,202,6.3,13.9,37,-99.99,,,0.00,wxRedirect v1.1,2013-03-15 19:10:00,
2013-03-15 14:15:00,80.6,51.0,29.82,SSW,202,6.3,6.7,36,-99.99,,,0.00,wxRedirect v1.1,2013-03-15 19:15:00,
2013-03-15 14:20:00,80.4,51.7,29.82,South,180,5.8,6.3,37,-99.99,,,0.00,wxRedirect v1.1,2013-03-15 19:20:00,
2013-03-15 14:26:00,80.4,51.7,29.81,South,180,10.5,10.5,37,-99.99,,,0.00,wxRedirect v1.1,2013-03-15 19:26:00,
2013-03-15 14:31:00,80.4,51.7,29.81,South,180,10.7,10.7,37,-99.99,,,0.00,wxRedirect v1.1,2013-03-15 19:31:00,
2013-03-15 14:36:00,80.4,51.7,29.80,SSE,157,7.6,10.7,37,-99.99,,,0.00,wxRedirect v1.1,2013-03-15 19:36:00,
2013-03-15 14:42:00,80.4,50.9,29.80,SSW,202,8.1,14.8,36,-99.99,,,0.00,wxRedirect v1.1,2013-03-15 19:42:00,
2013-03-15 14:47:00,80.6,51.8,29.80,South,180,5.8,14.8,37,-99.99,,,0.00,wxRedirect v1.1,2013-03-15 19:47:00,
2013-03-15 14:52:00,80.8,51.2,29.80,SSW,202,11.9,13.2,36,-99.99,,,0.00,wxRedirect v1.1,2013-03-15 19:52:00,
2013-03-15 14:58:00,80.8,51.2,29.80,South,180,14.8,14.8,36,-99.99,,,0.00,wxRedirect v1.1,2013-03-15 19:58:00,
2013-03-15 15:03:00,80.4,51.7,29.80,SSW,202,9.8,14.8,37,-99.99,,,0.00,wxRedirect v1.1,2013-03-15 20:03:00,
2013-03-15 15:08:00,80.4,51.7,29.79,SSW,202,7.6,13.2,37,-99.99,,,0.00,wxRedirect v1.1,2013-03-15 20:08:00,
2013-03-15 15:14:00,80.4,51.7,29.78,SSW,202,10.3,13.2,37,-99.99,,,0.00,wxRedirect v1.1,2013-03-15 20:14:00,
2013-03-15 15:19:00,80.4,51.7,29.78,SSW,202,9.4,11.4,37,-99.99,,,0.00,wxRedirect v1.1,2013-03-15 20:19:00,
2013-03-15 15:24:00,80.4,51.7,29.78,South,180,8.7,9.4,37,-99.99,,,0.00,wxRedirect v1.1,2013-03-15 20:24:00,
2013-03-15 15:30:00,80.4,51.7,29.78,South,180,8.1,8.7,37,-99.99,,,0.00,wxRedirect v1.1,2013-03-15 20:30:00,
2013-03-15 15:35:00,80.4,51.7,29.77,South,180,10.7,13.0,37,-99.99,,,0.00,wxRedirect v1.1,2013-03-15 20:35:00,
2013-03-15 15:40:00,80.2,51.5,29.77,South,180,11.9,13.0,37,-99.99,,,0.00,wxRedirect v1.1,2013-03-15 20:40:00,
2013-03-15 15:46:00,79.9,51.2,29.77,SSE,157,10.3,11.9,37,-99.99,,,0.00,wxRedirect v1.1,2013-03-15 20:46:00,
2013-03-15 15:51:00,79.9,51.2,29.77,South,180,8.3,11.4,37,-99.99,,,0.00,wxRedirect v1.1,2013-03-15 20:51:00,
2013-03-15 15:56:00,79.7,50.2,29.76,SSE,157,12.1,16.6,36,-99.99,,,0.00,wxRedirect v1.1,2013-03-15 20:56:00,
2013-03-15 16:01:00,79.7,51.0,29.76,SW,225,9.6,16.6,37,-99.99,,,0.00,wxRedirect v1.1,2013-03-15 21:01:00,
2013-03-15 16:06:00,79.5,50.8,29.75,SSE,157,14.5,17.2,37,-99.99,,,0.00,wxRedirect v1.1,2013-03-15 21:06:00,
2013-03-15 16:11:00,79.2,49.7,29.75,South,180,6.5,17.2,36,-99.99,,,0.00,wxRedirect v1.1,2013-03-15 21:11:00,
2013-03-15 16:17:00,79.0,49.6,29.75,South,180,14.3,14.3,36,-99.99,,,0.00,wxRedirect v1.1,2013-03-15 21:17:00,
2013-03-15 16:22:00,79.0,50.4,29.75,South,180,11.9,23.0,37,-99.99,,,0.00,wxRedirect v1.1,2013-03-15 21:22:00,
2013-03-15 16:27:00,78.6,49.3,29.75,South,180,18.3,18.3,36,-99.99,,,0.00,wxRedirect v1.1,2013-03-15 21:27:00,
2013-03-15 16:33:00,78.6,49.3,29.75,SSE,157,5.6,18.3,36,-99.99,,,0.00,wxRedirect v1.1,2013-03-15 21:33:00,
2013-03-15 16:38:00,78.6,50.0,29.75,SSW,202,14.5,16.8,37,-99.99,,,0.00,wxRedirect v1.1,2013-03-15 21:38:00,
2013-03-15 16:43:00,78.6,49.3,29.75,SSE,157,13.4,16.8,36,-99.99,,,0.00,wxRedirect v1.1,2013-03-15 21:43:00,
2013-03-15 16:49:00,78.4,49.1,29.75,South,180,4.7,13.4,36,-99.99,,,0.00,wxRedirect v1.1,2013-03-15 21:49:00,
2013-03-15 16:54:00,78.1,49.6,29.75,South,180,13.0,13.4,37,-99.99,,,0.00,wxRedirect v1.1,2013-03-15 21:54:00,
2013-03-15 16:59:00,78.1,49.6,29.75,South,180,12.1,13.0,37,-99.99,,,0.00,wxRedirect v1.1,2013-03-15 21:59:00,
2013-03-15 17:04:00,78.1,49.6,29.75,SSE,157,4.5,13.0,36,-99.99,,,0.00,wxRedirect v1.1,2013-03-15 22:04:00,
2013-03-15 17:10:00,78.1,48.8,29.75,SSE,157,8.1,8.1,36,-99.99,,,0.00,wxRedirect v1.1,2013-03-15 22:10:00,
2013-03-15 17:15:00,77.9,48.7,29.75,South,180,10.7,21.7,36,-99.99,,,0.00,wxRedirect v1.1,2013-03-15 22:15:00,
2013-03-15 17:20:00,77.9,49.4,29.75,SSE,157,12.3,21.7,37,-99.99,,,0.00,wxRedirect v1.1,2013-03-15 22:20:00,
2013-03-15 17:26:00,77.9,50.2,29.75,WSW,247,13.0,13.0,38,-99.99,,,0.00,wxRedirect v1.1,2013-03-15 22:26:00,
2013-03-15 17:31:00,77.7,49.2,29.74,SSE,157,11.0,13.0,37,-99.99,,,0.00,wxRedirect v1.1,2013-03-15 22:31:00,
2013-03-15 17:37:00,77.7,49.2,29.74,SSE,157,10.5,12.1,37,-99.99,,,0.00,wxRedirect v1.1,2013-03-15 22:37:00,
2013-03-15 17:42:00,77.7,49.2,29.74,South,180,8.9,18.3,37,-99.99,,,0.00,wxRedirect v1.1,2013-03-15 22:42:00,
2013-03-15 17:47:00,77.5,49.1,29.73,SSW,202,11.4,18.3,37,-99.99,,,0.00,wxRedirect v1.1,2013-03-15 22:47:00,
2013-03-15 17:52:00,77.4,48.9,29.74,SSE,157,10.5,21.0,37,-99.99,,,0.00,wxRedirect v1.1,2013-03-15 22:52:00,
2013-03-15 17:58:00,77.2,48.8,29.73,SSW,202,11.0,21.0,37,-99.99,,,0.00,wxRedirect v1.1,2013-03-15 22:58:00,
2013-03-15 18:03:00,77.0,48.6,29.73,South,180,10.3,13.2,37,-99.99,,,0.00,wxRedirect v1.1,2013-03-15 23:03:00,
2013-03-15 18:09:00,77.0,48.6,29.73,SSE,157,11.9,14.3,37,-99.99,,,0.00,wxRedirect v1.1,2013-03-15 23:09:00,
2013-03-15 18:14:00,76.8,48.5,29.73,SSE,157,7.2,14.3,37,-99.99,,,0.00,wxRedirect v1.1,2013-03-15 23:14:00,
2013-03-15 18:19:00,76.8,48.5,29.72,SSE,157,10.3,12.3,37,-99.99,,,0.00,wxRedirect v1.1,2013-03-15 23:19:00,
2013-03-15 18:25:00,76.6,48.3,29.72,SSE,157,9.2,10.3,37,-99.99,,,0.00,wxRedirect v1.1,2013-03-15 23:25:00,
2013-03-15 18:30:00,76.6,48.3,29.72,South,180,6.5,14.5,37,-99.99,,,0.00,wxRedirect v1.1,2013-03-15 23:30:00,
2013-03-15 18:35:00,76.3,48.0,29.72,South,180,14.5,14.5,37,-99.99,,,0.00,wxRedirect v1.1,2013-03-15 23:35:00,
2013-03-15 18:41:00,76.3,48.0,29.72,SSE,157,4.5,14.5,37,-99.99,,,0.00,wxRedirect v1.1,2013-03-15 23:41:00,
2013-03-15 18:46:00,76.1,47.8,29.72,SSE,157,8.7,9.2,37,-99.99,,,0.00,wxRedirect v1.1,2013-03-15 23:46:00,
2013-03-15 18:51:00,75.9,48.4,29.72,SSE,157,8.3,9.6,38,-99.99,,,0.00,wxRedirect v1.1,2013-03-15 23:51:00,
2013-03-15 18:57:00,75.7,48.3,29.72,SSE,157,10.1,10.1,38,-99.99,,,0.00,wxRedirect v1.1,2013-03-15 23:57:00,
2013-03-15 19:02:00,75.6,48.8,29.72,SSE,157,4.7,10.1,39,-99.99,,,0.00,wxRedirect v1.1,2013-03-16 00:02:00,
2013-03-15 19:07:00,75.2,49.3,29.72,SSE,157,9.2,9.2,40,-99.99,,,0.00,wxRedirect v1.1,2013-03-16 00:07:00,
2013-03-15 19:12:00,75.0,49.7,29.72,SSE,157,6.9,9.2,41,-99.99,,,0.00,wxRedirect v1.1,2013-03-16 00:12:00,
2013-03-15 19:18:00,74.7,50.0,29.72,SSE,157,5.8,8.9,42,-99.99,,,0.00,wxRedirect v1.1,2013-03-16 00:18:00,
2013-03-15 19:23:00,74.5,49.8,29.72,South,180,7.6,8.1,42,-99.99,,,0.00,wxRedirect v1.1,2013-03-16 00:23:00,
2013-03-15 19:29:00,73.9,49.9,29.72,SSE,157,7.2,7.6,43,-99.99,,,0.00,wxRedirect v1.1,2013-03-16 00:29:00,
2013-03-15 19:34:00,73.8,50.4,29.72,SSE,157,4.7,9.8,44,-99.99,,,0.00,wxRedirect v1.1,2013-03-16 00:34:00,
2013-03-15 19:39:00,73.2,49.9,29.72,SSE,157,11.9,11.9,44,-99.99,,,0.00,wxRedirect v1.1,2013-03-16 00:39:00,
2013-03-15 19:45:00,73.0,50.3,29.72,South,180,11.0,11.9,45,-99.99,,,0.00,wxRedirect v1.1,2013-03-16 00:45:00,
2013-03-15 19:50:00,72.5,49.8,29.72,SSE,157,7.8,11.2,45,-99.99,,,0.00,wxRedirect v1.1,2013-03-16 00:50:00,
2013-03-15 19:55:00,72.3,49.7,29.72,South,180,4.9,11.4,45,-99.99,,,0.00,wxRedirect v1.1,2013-03-16 00:55:00,
2013-03-15 20:00:00,72.0,49.9,29.72,SSE,157,8.3,11.4,46,-99.99,,,0.00,wxRedirect v1.1,2013-03-16 01:00:00,
2013-03-15 20:05:00,71.8,49.8,29.72,SSE,157,5.6,8.7,46,-99.99,,,0.00,wxRedirect v1.1,2013-03-16 01:05:00,
2013-03-15 20:11:00,71.4,49.4,29.71,SSE,157,7.2,7.2,46,-99.99,,,0.00,wxRedirect v1.1,2013-03-16 01:11:00,
2013-03-15 20:17:00,71.2,49.9,29.72,SSE,157,9.6,11.0,47,-99.99,,,0.00,wxRedirect v1.1,2013-03-16 01:17:00,
2013-03-15 20:22:00,70.9,49.6,29.71,SSE,157,6.9,11.0,47,-99.99,,,0.00,wxRedirect v1.1,2013-03-16 01:22:00,
2013-03-15 20:27:00,70.7,49.4,29.71,South,180,6.3,6.9,47,-99.99,,,0.00,wxRedirect v1.1,2013-03-16 01:27:00,
2013-03-15 20:33:00,70.5,49.8,29.71,SSE,157,2.9,6.3,48,-99.99,,,0.00,wxRedirect v1.1,2013-03-16 01:33:00,
2013-03-15 20:38:00,70.3,49.7,29.71,South,180,4.3,5.1,48,-99.99,,,0.00,wxRedirect v1.1,2013-03-16 01:38:00,
2013-03-15 20:43:00,70.0,49.3,29.71,South,180,7.4,10.7,48,-99.99,,,0.00,wxRedirect v1.1,2013-03-16 01:43:00,
2013-03-15 20:48:00,69.8,49.2,29.71,South,180,15.0,15.0,48,-99.99,,,0.00,wxRedirect v1.1,2013-03-16 01:48:00,
2013-03-15 20:53:00,69.6,49.0,29.70,South,180,4.0,15.0,48,-99.99,,,0.00,wxRedirect v1.1,2013-03-16 01:53:00,
2013-03-15 20:59:00,69.4,48.8,29.71,SSW,202,10.5,10.5,48,-99.99,,,0.00,wxRedirect v1.1,2013-03-16 01:59:00,
2013-03-15 21:04:00,69.1,49.1,29.71,SSE,157,8.9,10.5,49,-99.99,,,0.00,wxRedirect v1.1,2013-03-16 02:04:00,
2013-03-15 21:09:00,68.9,49.0,29.71,South,180,9.4,9.4,49,-99.99,,,0.00,wxRedirect v1.1,2013-03-16 02:09:00,
2013-03-15 21:15:00,68.7,48.8,29.71,South,180,9.4,9.4,49,-99.99,,,0.00,wxRedirect v1.1,2013-03-16 02:15:00,
2013-03-15 21:20:00,68.5,48.6,29.71,SW,225,8.7,9.4,49,-99.99,,,0.00,wxRedirect v1.1,2013-03-16 02:20:00,
2013-03-15 21:25:00,68.5,48.6,29.71,SSW,202,5.6,9.4,49,-99.99,,,0.00,wxRedirect v1.1,2013-03-16 02:25:00,
2013-03-15 21:31:00,68.2,48.3,29.71,South,180,8.7,8.7,49,-99.99,,,0.00,wxRedirect v1.1,2013-03-16 02:31:00,
2013-03-15 21:36:00,68.2,48.3,29.71,South,180,7.2,8.7,49,-99.99,,,0.00,wxRedirect v1.1,2013-03-16 02:36:00,
2013-03-15 21:41:00,68.0,48.7,29.71,South,180,7.2,7.2,50,-99.99,,,0.00,wxRedirect v1.1,2013-03-16 02:41:00,
2013-03-15 21:47:00,67.8,48.6,29.71,SSW,202,4.5,7.2,50,-99.99,,,0.00,wxRedirect v1.1,2013-03-16 02:47:00,
2013-03-15 21:52:00,67.8,48.6,29.72,SSW,202,8.9,8.9,50,-99.99,,,0.00,wxRedirect v1.1,2013-03-16 02:52:00,
2013-03-15 21:57:00,67.8,48.6,29.72,WSW,247,9.6,9.6,50,-99.99,,,0.00,wxRedirect v1.1,2013-03-16 02:57:00,
2013-03-15 22:02:00,67.6,48.4,29.72,WSW,247,2.9,9.6,50,-99.99,,,0.00,wxRedirect v1.1,2013-03-16 03:02:00,
2013-03-15 22:08:00,67.6,48.4,29.72,SW,225,7.4,7.4,50,-99.99,,,0.00,wxRedirect v1.1,2013-03-16 03:08:00,
2013-03-15 22:13:00,67.5,48.3,29.72,SSW,202,8.9,8.9,50,-99.99,,,0.00,wxRedirect v1.1,2013-03-16 03:13:00,
2013-03-15 22:18:00,67.3,48.1,29.73,SW,225,6.5,8.9,50,-99.99,,,0.00,wxRedirect v1.1,2013-03-16 03:18:00,
2013-03-15 22:24:00,67.3,48.1,29.72,SSW,202,5.4,8.9,50,-99.99,,,0.00,wxRedirect v1.1,2013-03-16 03:24:00,
2013-03-15 22:29:00,67.1,47.9,29.72,SW,225,7.8,9.2,50,-99.99,,,0.00,wxRedirect v1.1,2013-03-16 03:29:00,
2013-03-15 22:34:00,67.1,47.9,29.72,SSW,202,4.5,9.2,50,-99.99,,,0.00,wxRedirect v1.1,2013-03-16 03:34:00,
2013-03-15 22:40:00,67.1,47.9,29.72,SSW,202,4.7,8.5,50,-99.99,,,0.00,wxRedirect v1.1,2013-03-16 03:40:00,
2013-03-15 22:45:00,66.9,47.8,29.73,South,180,4.5,8.9,50,-99.99,,,0.00,wxRedirect v1.1,2013-03-16 03:45:00,
2013-03-15 22:50:00,66.9,47.8,29.73,SW,225,2.2,8.9,50,-99.99,,,0.00,wxRedirect v1.1,2013-03-16 03:50:00,
2013-03-15 22:56:00,66.7,47.6,29.73,SSW,202,0.0,10.5,50,-99.99,,,0.00,wxRedirect v1.1,2013-03-16 03:56:00,
2013-03-15 23:00:00,66.7,47.6,29.73,WSW,247,8.3,10.5,50,-99.99,,,0.00,wxRedirect v1.1,2013-03-16 04:00:00,
2013-03-15 23:01:00,66.7,47.6,29.73,WSW,247,8.3,10.5,50,-99.99,,,0.00,wxRedirect v1.1,2013-03-16 04:01:00,
2013-03-15 23:04:00,66.7,47.6,29.73,SW,225,8.3,8.3,50,-99.99,,,0.00,wxRedirect v1.1,2013-03-16 04:04:00,
2013-03-15 23:09:00,66.7,47.6,29.73,SW,225,0.0,8.3,50,-99.99,,,0.00,wxRedirect v1.1,2013-03-16 04:09:00,
2013-03-15 23:14:00,66.6,47.4,29.73,SW,225,6.7,6.7,50,-99.99,,,0.00,wxRedirect v1.1,2013-03-16 04:14:00,
2013-03-15 23:20:00,66.6,47.4,29.73,SW,225,10.7,10.7,50,-99.99,,,0.00,wxRedirect v1.1,2013-03-16 04:20:00,
2013-03-15 23:25:00,66.4,47.3,29.73,SSW,202,6.0,10.7,50,-99.99,,,0.00,wxRedirect v1.1,2013-03-16 04:25:00,
2013-03-15 23:30:00,66.4,47.3,29.73,SW,225,2.7,7.4,50,-99.99,,,0.00,wxRedirect v1.1,2013-03-16 04:30:00,
2013-03-15 23:36:00,66.2,47.1,29.73,SSW,202,4.0,7.4,50,-99.99,,,0.00,wxRedirect v1.1,2013-03-16 04:36:00,
2013-03-15 23:41:00,66.0,46.9,29.73,SSE,157,6.0,6.0,50,-99.99,,,0.00,wxRedirect v1.1,2013-03-16 04:41:00,
2013-03-15 23:46:00,66.0,46.9,29.73,SSW,202,2.0,6.0,50,-99.99,,,0.00,wxRedirect v1.1,2013-03-16 04:46:00,
2013-03-15 23:52:00,66.0,46.9,29.73,South,180,0.0,6.0,50,-99.99,,,0.00,wxRedirect v1.1,2013-03-16 04:52:00,
2013-03-15 23:57:00,65.8,47.2,29.73,SSE,157,4.3,4.3,51,-99.99,,,0.00,wxRedirect v1.1,2013-03-16 04:57:00,